Back to catalog

SL-8 R/B

AliveLEO
NORAD 6966·ROCKET BODY·🇷🇺 Russia

Launched Dec 4, 1973 from Plesetsk Cosmodrome

Loading…

Next Passes (next 24 hours)

TLE

FreshSource: Space-Track

Epoch: Sep 14, 2026, 11:08 UTC

1 06966U 73098B   26257.46455405  .00000097  00000-0  35581-4 0  9991
2 06966  74.0531  75.1832 0021733 278.0950  81.7742 14.44917297772353

Track SL-8 R/B in real time with AllMySat

Download on the App Store